• Join FlightAware (Why Join?)
  • Login
  • US Flag 
Trick or treat! (Boo!!) 
11:21PM EDT


 

Airport Tracker/Info


-or-


 

Live Flight TrackerFlight Track Log ✈ SWA1728 ✈ 03-May-2013 ✈ KMDW - KBNA

Flight Track Log - Related Links

Times and Time Zones

All times are in EDT time to prevent confusion due to time zone crossing. See the SWA1728 flight status page for this flight to view local times or setup timezone preferences in your user account.

Time Position Orientation Groundspeed Altitude Reporting Facility
EDT Latitude Longitude Course Direction KTS MPH feet Rate Location/Type
09:37PM 41.8000 -87.7833 48° Northeast 159 183 1,800  Level Chicago TRACON
09:38PM 41.8333 -87.7333 48° Northeast 215 247 3,700 2,580 Climbing Chicago TRACON
09:40PM 41.7083 -87.7600 189° South 263 303 9,600 2,700 Climbing Chicago Center
09:41PM 41.6336 -87.7892 196° South 280 322 11,900 2,040 Climbing Chicago Center
09:42PM 41.5464 -87.8236 196° South 321 369 13,900 2,340 Climbing Chicago Center
09:43PM 41.4531 -87.8619 197° South 345 397 16,700 2,400 Climbing Chicago Center
09:44PM 41.3572 -87.8825 189° South 348 400 18,900 1,740 Climbing Chicago Center
09:45PM 41.2556 -87.8928 184° South 360 414 20,300 1,680 Climbing Chicago Center
09:46PM 41.1481 -87.8892 179° South 382 440 22,400 1,860 Climbing Chicago Center
09:47PM 41.0192 -87.8861 179° South 387 445 24,200 1,680 Climbing Chicago Center
09:48PM 40.9089 -87.8806 178° South 395 455 25,900 1,440 Climbing Chicago Center
09:49PM 40.7978 -87.8778 179° South 400 460 27,200 1,260 Climbing Chicago Center
09:50PM 40.6833 -87.8731 178° South 408 470 28,500 1,440 Climbing Chicago Center
09:51PM 40.5686 -87.8708 179° South 413 475 30,200 1,680 Climbing Chicago Center
09:52PM 40.4572 -87.8672 179° South 405 466 32,000 1,500 Climbing Chicago Center
09:53PM 40.3608 -87.8678 180° South 399 459 33,000 540 Climbing Indianapolis Center
09:54PM 40.2517 -87.8622 178° South 396 456 33,000  Level Indianapolis Center
09:55PM 40.1406 -87.8469 174° South 401 461 33,000  Level Indianapolis Center
09:56PM 40.0308 -87.8228 170° South 401 461 33,000  Level Indianapolis Center
09:57PM 39.9003 -87.7950 171° South 399 459 33,000  Level Indianapolis Center
09:58PM 39.7922 -87.7706 170° South 398 458 33,000  Level Indianapolis Center
09:59PM 39.6844 -87.7469 170° South 396 456 33,000  Level Indianapolis Center
10:00PM 39.5758 -87.7231 170° South 397 457 33,000  Level Indianapolis Center
10:01PM 39.4689 -87.6994 170° South 394 453 33,000  Level Indianapolis Center
10:02PM 39.3617 -87.6764 171° South 394 453 33,000  Level Indianapolis Center
10:03PM 39.2531 -87.6525 170° South 394 453 33,000  Level Indianapolis Center
10:04PM 39.1456 -87.6294 171° South 391 450 33,000  Level Indianapolis Center
10:05PM 39.0378 -87.6069 171° South 391 450 33,000  Level Indianapolis Center
10:06PM 38.9322 -87.5836 170° South 386 444 33,000  Level Indianapolis Center
10:07PM 38.8256 -87.5611 171° South 386 444 33,000  Level Indianapolis Center
10:08PM 38.6981 -87.5342 171° South 385 443 33,000  Level Indianapolis Center
10:09PM 38.5925 -87.5125 171° South 385 443 33,000  Level Indianapolis Center
10:10PM 38.4861 -87.4906 171° South 386 444 33,000  Level Indianapolis Center
10:11PM 38.3803 -87.4669 170° South 387 445 33,000  Level Indianapolis Center
10:12PM 38.2742 -87.4447 171° South 389 448 33,000  Level Indianapolis Center
10:13PM 38.1678 -87.4242 171° South 388 447 33,000 -360 Level Indianapolis Center
10:14PM 38.0611 -87.4006 170° South 392 451 32,300 -840 Descending Indianapolis Center
10:15PM 37.9531 -87.3786 171° South 394 453 31,300 -1,020 Descending Indianapolis Center
10:16PM 37.8461 -87.3553 170° South 390 449 30,300 -1,020 Descending Indianapolis Center
10:17PM 37.7331 -87.3333 171° South 388 447 29,300 -1,020 Descending Indianapolis Center
10:19PM 37.6275 -87.3119 171° South 382 440 28,300 -1,140 Descending Indianapolis Center
10:19PM 37.5922 -87.3056 172° South 386 444 27,800 -1,980 Descending Memphis Center
10:20PM 37.4917 -87.2858 171° South 375 432 25,700 -2,100 Descending Memphis Center
10:21PM 37.3975 -87.2661 171° South 353 406 23,700 -1,380 Descending Memphis Center
10:22PM 37.3117 -87.2433 168° South 328 377 23,000 -420 Descending Memphis Center
10:23PM 37.2233 -87.2181 167° South 327 376 23,000  Level Memphis Center
10:23PM 37.1731 -87.2044 168° South 329 379 23,000  Level Memphis Center
10:24PM 37.1247 -87.1908 167° South 328 377 23,000 -1,320 Level Memphis Center
10:24PM 37.0806 -87.1769 166° South 332 382 21,700 -2,520 Descending Memphis Center
10:25PM 37.0322 -87.1606 165° South 334 384 20,500 -2,400 Descending Memphis Center
10:25PM 36.9883 -87.1494 169° South 345 397 19,300 -2,400 Descending Memphis Center
10:26PM 36.9400 -87.1358 167° South 340 391 18,100 -2,160 Descending Memphis Center
10:27PM 36.8497 -87.1083 166° South 333 383 16,100 -1,980 Descending Memphis Center
10:28PM 36.7694 -87.0700 159° South 319 367 14,200 -2,160 Descending Memphis Center
10:29PM 36.6953 -87.0239 154° Southeast 300 345 11,800 -2,160 Descending Memphis Center
10:30PM 36.6433 -86.9536 133° Southeast 280 322 9,900 -1,620 Descending Memphis Center
10:31PM 36.5978 -86.8833 129° Southeast 266 306 8,600 -1,200 Descending Memphis Center
10:32PM 36.5606 -86.8228 127° Southeast 258 297 7,600 -1,020 Descending Memphis Center
10:33PM 36.5233 -86.7572 125° Southeast 240 276 6,600 -1,080 Descending Memphis Center
10:34PM 36.4858 -86.6944 127° Southeast 230 265 5,500 -1,320 Descending Memphis Center
10:35PM 36.4406 -86.6425 137° Southeast 223 257 4,000 -900 Descending Memphis Center
10:36PM 36.3750 -86.6119 159° South 223 257 3,800 -540 Descending Memphis Center
10:37PM 36.3164 -86.5992 170° South 229 264 3,000 -420 Descending Memphis Center
10:38PM 36.2644 -86.6067 187° South 208 239 3,000 -300 Level Memphis Center
10:39PM 36.2233 -86.6239 199° South 179 206 2,400 -660 Descending Memphis Center
10:40PM 36.1842 -86.6386 197° South 155 178 1,700 -780 Descending Memphis Center
10:41PM 36.1450 -86.6558 200° South 148 170 900 -540 Descending Memphis Center
10:42PM 36.1078 -86.6678 195° South 148 170 700 -240 Descending Memphis Center
10:44PM 36.1167 -86.6667 90° East  Level FlightAware Approximate
10:51PM 36.1245 -86.6782 90° East  Level Estimated
10:52PM 36.1245 -86.6782 90° East  Level Estimated
10:53PM 36.1245 -86.6782 90° East  Level Estimated
10:54PM 36.1245 -86.6782 90° East  Level Estimated
10:55PM 36.1245 -86.6782 90° East  Level Estimated
10:56PM 36.1245 -86.6782 90° East  Level Estimated
10:57PM 36.1245 -86.6782 90° East  Level Estimated
10:58PM 36.1245 -86.6782 90° East  Level Estimated
10:59PM 36.1245 -86.6782 90° East  Level Estimated
11:00PM 36.1245 -86.6782 90° East  Level Estimated
11:01PM 36.1245 -86.6782 90° East  Level Estimated
11:02PM 36.1245 -86.6782 90° East  Level Estimated